Simultaneous Nadir Overpasses (SNOs) Predictions

Prediction of SNOs between GOES-16 and NOAA-21 Satellite Orbit:

Table of predicted SNOs for the next 14.0 days since TLE Epoch: 3/7/2025
Index Date Time (GOES-16) GOES-16 Lat,Lon NOAA-21 Lat,Lon Distance(km) Time Diff (sec)
1 03/08/2025 18:23:33 0.06, -75.24 0.25, -74.28 109.28 80
2 03/10/2025 06:45:20 -0.05, -75.27 0.91, -79.55 487.94 80
3 03/11/2025 06:23:56 -0.05, -75.29 -0.12, -75.03 29.99 80
4 03/13/2025 18:27:08 0.04, -75.32 -0.06, -75.80 54.08 80
5 03/14/2025 18:11:03 0.04, -75.35 0.97, -71.27 464.83 80
6 03/16/2025 06:32:50 -0.04, -75.40 0.23, -76.53 130.35 80
7 03/17/2025 06:11:25 -0.04, -75.42 -0.80, -72.01 388.56 80
8 03/18/2025 18:33:21 0.04, -75.45 -0.39, -77.31 213.14 80
9 03/19/2025 18:17:17 0.04, -75.47 0.65, -72.79 306.26 80
10 03/21/2025 06:39:03 -0.04, -75.53 0.55, -78.05 287.93 80
